Location: Brentwood
(41.6478°N, 81.3748°W)
Time: 20:37:39
(UTC+00:00)

Daily predictions for brighter satellites

Satellite Brightness Start Highest point End
(mag) Time Altitude Azimuth Time Altitude Azimuth Time Altitude Azimuth
ATLAS 5 CENTAUR R/B 4.3 23:07:29 10° NW 23:13:13 78° NE 23:40:01 10° SE
BREEZE-M DEB (TANK) 4.2 23:21:20 10° NW 23:23:16 20° NNE 23:26:08 10° ENE
FengYun 1-2 T 4.3 23:19:09 10° SSE 23:24:47 71° ENE 23:30:24 10° N
Cosmos 1933 3.4 23:22:43 10° N 23:26:47 85° W 23:30:48 10° S
STARLINK-80 3.5 23:25:53 10° SW 23:29:43 84° NW 23:33:33 10° NE
Cosmos 1151 Rocket 4.1 23:26:32 10° NNW 23:30:48 52° W 23:35:03 10° S
Cosmos 2082 Rocket 2.3 23:27:31 10° NNW 23:33:04 54° ENE 23:38:35 10° SE
Meteor 2-3 Rocket 3.7 23:27:34 10° S 23:33:09 85° E 23:38:48 10° N
COSMO-SKYMED 1 2.6 23:33:36 10° NNE 23:37:58 87° ESE 23:42:18 10° SSW
CZ-4 R/B 4.4 23:33:58 10° SSE 23:38:03 70° ENE 23:42:10 10° N
Cosmos 1805 Rocket 4.1 23:34:22 10° SSE 23:38:24 37° E 23:42:26 10° NNE
Cosmos 1459 Rocket 3.9 23:35:05 10° S 23:41:04 66° E 23:47:04 10° NNE
Cosmos 1782 3.0 23:38:03 10° N 23:42:00 50° E 23:45:52 10° SSE
ATLAS 5 CENTAUR R/B 3.3 23:38:07 10° NW 23:43:56 56° WSW 23:50:32 10° SSE
USA 116 3.9 23:40:41 10° NNE 23:44:17 50° E 23:48:18 10° S
Cosmos 1515 Rocket 4.2 23:40:21 10° NNW 23:44:39 60° W 23:48:55 10° S
Cosmos 1500 Rocket 3.8 23:41:33 10° S 23:45:59 79° W 23:50:28 10° N
Sich 1 3.7 23:42:28 10° SSE 23:46:17 32° E 23:50:06 10° NNE
Cosmos 1725 Rocket 4.4 23:40:59 10° SSE 23:46:38 40° E 23:52:19 10° NNE
Cosmos 1862 4.2 23:43:48 10° SSE 23:47:10 26° E 23:50:33 10° NNE
SL-4 R/B 3.4 23:44:15 10° NW 23:48:31 31° NNE 23:51:51 14° ENE
STARLINK-61 4.3 23:45:13 10° SSW 23:48:42 32° SE 23:51:27 14° ENE
Cosmos 1707 Rocket 4.5 23:45:06 10° NNE 23:48:53 27° ENE 23:52:41 10° SE
ADEOS Rocket 3.8 23:42:23 10° NNE 23:49:50 50° E 23:57:16 10° S
Abrixas rocket 2.8 23:49:47 10° NW 23:52:32 34° NNE 23:54:16 18° ENE
Cosmos 1833 Rocket 3.1 23:47:05 10° NNW 23:52:42 69° WSW 23:58:17 10° SSE
Cosmos 1802 Rocket 4.0 23:46:55 10° S 23:53:05 68° E 23:59:22 10° NNE
STARLINK-33 4.0 23:53:06 10° SSW 23:56:01 30° SE 23:57:42 19° E
